Torna al catalogo

USA 419

AttivoMilitareVLEO
NORAD 61040·PAYLOAD·🇺🇸 United States

Lanciato Sep 6, 2024 da Vandenberg Space Force Base

Loading…

Prossimi Passaggi (prossime 24 ore)

TLE

ObsoletoSource: Mike McCants

Epoca: Aug 24, 2026, 22:49 UTC

1 61040U 24160V   26236.95106491 0.00000000  00000-0  00000-0 0    01
2 61040  70.0221 184.3742 0004019 247.8038 112.1961 14.96713556    08

Traccia USA 419 in tempo reale con AllMySat

Download on the App Store